Weather in Amberg

Germany     49°26′32″N   11°51′20″E
temp.,
°C
wind,
m/s
gust,
m/s
humid.,
%
clouds,
%
prec.,
mm/h
press.,
hPa
HPBL,
m
24 june, thu
thu2423:00+16nne31095100 0.1 1016392
02:00+15ne4999100 10.2 1016328
05:00+15nnw1198100 0.8 101747
08:00+16nw229467 1.0 1017365
11:00+18nw228453 0.5 1018632
14:00+22nnw226082 0.7 10161402
17:00+21n346353 0.2 1016814
20:00+18nne2479100 0.2 1016191
25 june, fri
fri2523:00+14nne1192100 0.0 101814
02:00+13wsw1191100 0.1 101810
05:00+14s1297100 1.1 1018138
08:00+14sw1399100 5.7 1018238
11:00+14w249897 3.3 1019375
14:00+15nw249285 4.6 1019424
17:00+17nw338143 0.8 1018739
20:00+17nw237880 0.9 1018354
26 june, sat
sat2623:00+13wnw119692 0.0 102012
02:00+12w11976 0.0 102010
05:00+11wnw11975 0.0 102010
08:00+15e11855 0.0 1021275
11:00+21nne00575 0.0 10191125
14:00+24e014548 0.0 10181967
17:00+21wnw2361100 0.0 1017342
20:00+19nne257411 0.0 1017179
27 june, sun
sun2723:00+14ne22935 0.0 101813
02:00+14ene1195100 0.0 101812
05:00+13e1196100 0.0 101712
08:00+17ese137965 0.0 1017234
11:00+22ese235948 0.0 1016883
14:00+26ese22416 0.0 10151571
17:00+27ese2340100 0.0 10141742
20:00+22e396966 0.0 1014304
28 june, mon
mon2823:00+17ene2286100 0.0 101537
02:00+17ne1183100 0.0 101415
05:00+16nne118699 0.0 101413
08:00+19ene377212 0.0 1013300
11:00+25ese3454100 0.0 1012719
14:00+28e3544100 0.0 10111261
17:00+29e344526 0.0 10101394
20:00+24ne22696 0.0 101028